Year,Month,Day,Hour,Minute,Value (Times are PST for temperature in C)
2021,04,16,08,07,12.50
2021,04,16,08,08,12.60
2021,04,16,08,09,12.70
2021,04,16,08,10,12.80
2021,04,16,08,11,12.90
2021,04,16,08,12,13.00
2021,04,16,08,13,13.10
2021,04,16,08,14,13.20
2021,04,16,08,15,13.30
2021,04,16,08,16,13.40
2021,04,16,08,17,13.50
2021,04,16,08,18,13.60
2021,04,16,08,19,13.70
2021,04,16,08,20,13.70
2021,04,16,08,21,13.80
2021,04,16,08,22,13.90
2021,04,16,08,23,13.90
2021,04,16,08,24,14.00
2021,04,16,08,25,14.10
2021,04,16,08,26,14.20
2021,04,16,08,27,14.20
2021,04,16,08,28,14.30
2021,04,16,08,29,14.30
2021,04,16,08,30,14.40
2021,04,16,08,31,14.40
2021,04,16,08,32,14.50
2021,04,16,08,33,14.50
2021,04,16,08,34,14.60
2021,04,16,08,35,14.70
2021,04,16,08,36,14.70
2021,04,16,08,37,14.80
2021,04,16,08,38,14.80
2021,04,16,08,39,14.80
2021,04,16,08,40,14.80
2021,04,16,08,41,14.80
2021,04,16,08,42,14.80
2021,04,16,08,43,14.80
2021,04,16,08,44,14.80
2021,04,16,08,45,14.80
2021,04,16,08,46,14.90
2021,04,16,08,47,14.90
2021,04,16,08,48,14.90
2021,04,16,08,49,14.90
2021,04,16,08,50,14.90
2021,04,16,08,51,14.90
2021,04,16,08,52,14.90
2021,04,16,08,53,14.90
2021,04,16,08,54,15.00
2021,04,16,08,55,15.00
2021,04,16,08,56,15.00
2021,04,16,08,57,15.10
2021,04,16,08,58,15.10
2021,04,16,08,59,15.10
2021,04,16,09,00,15.20
2021,04,16,09,01,15.20
2021,04,16,09,02,15.30
2021,04,16,09,03,15.30
2021,04,16,09,04,15.30
2021,04,16,09,05,15.40
2021,04,16,09,06,15.50
2021,04,16,09,07,15.50
2021,04,16,09,08,15.50
2021,04,16,09,09,15.50
2021,04,16,09,10,15.60
2021,04,16,09,11,15.60
2021,04,16,09,12,15.60
2021,04,16,09,13,15.60
2021,04,16,09,14,15.60
2021,04,16,09,15,15.60
2021,04,16,09,16,15.60
2021,04,16,09,17,15.60
2021,04,16,09,18,15.60
2021,04,16,09,19,15.60
2021,04,16,09,20,15.60
2021,04,16,09,21,15.50
2021,04,16,09,22,15.60
2021,04,16,09,23,15.60
2021,04,16,09,24,15.60
2021,04,16,09,25,15.70
2021,04,16,09,26,15.70
2021,04,16,09,27,15.70
2021,04,16,09,28,15.70
2021,04,16,09,29,15.80
2021,04,16,09,30,15.80
2021,04,16,09,31,15.80
2021,04,16,09,32,15.80
2021,04,16,09,33,15.80
2021,04,16,09,34,15.80
2021,04,16,09,35,15.80
2021,04,16,09,36,15.80
2021,04,16,09,37,15.90
2021,04,16,09,38,15.90
2021,04,16,09,39,15.90
2021,04,16,09,40,15.90
2021,04,16,09,41,15.90
2021,04,16,09,42,16.00
2021,04,16,09,43,16.10
2021,04,16,09,44,16.10
2021,04,16,09,45,16.10
2021,04,16,09,46,16.10
2021,04,16,09,47,16.10
2021,04,16,09,48,16.10
2021,04,16,09,49,16.10
2021,04,16,09,50,16.10
2021,04,16,09,51,16.20
2021,04,16,09,52,16.20
2021,04,16,09,53,16.20
2021,04,16,09,54,16.30
2021,04,16,09,55,16.30
2021,04,16,09,56,16.40
2021,04,16,09,57,16.40
2021,04,16,09,58,16.40
2021,04,16,09,59,16.50
2021,04,16,10,00,16.60
2021,04,16,10,01,16.70
2021,04,16,10,02,16.70
2021,04,16,10,03,16.70
2021,04,16,10,04,16.80
2021,04,16,10,05,16.80
2021,04,16,10,06,16.90
2021,04,16,10,07,16.90
2021,04,16,10,08,16.90
2021,04,16,10,09,16.90
2021,04,16,10,10,16.90
2021,04,16,10,11,17.00
2021,04,16,10,12,17.00
2021,04,16,10,13,17.00
2021,04,16,10,14,17.10
2021,04,16,10,15,17.10
2021,04,16,10,16,17.20
2021,04,16,10,17,17.20
2021,04,16,10,18,17.30
2021,04,16,10,19,17.30
2021,04,16,10,20,17.30
2021,04,16,10,21,17.40
2021,04,16,10,22,17.40
2021,04,16,10,23,17.40
2021,04,16,10,24,17.50
2021,04,16,10,25,17.50
2021,04,16,10,26,17.50
2021,04,16,10,27,17.50
2021,04,16,10,28,17.60
2021,04,16,10,29,17.60
2021,04,16,10,30,17.60
2021,04,16,10,31,17.70
2021,04,16,10,32,17.70
2021,04,16,10,33,17.80
2021,04,16,10,34,17.90
2021,04,16,10,35,17.90
2021,04,16,10,36,17.90
2021,04,16,10,37,17.90
2021,04,16,10,38,17.90
2021,04,16,10,39,17.90
2021,04,16,10,40,17.90
2021,04,16,10,41,17.90
2021,04,16,10,42,17.90
2021,04,16,10,43,17.90
2021,04,16,10,44,17.90
2021,04,16,10,45,17.90
2021,04,16,10,46,17.90
2021,04,16,10,47,17.90
2021,04,16,10,48,18.10
2021,04,16,10,49,18.10
2021,04,16,10,50,18.20
2021,04,16,10,51,18.20
2021,04,16,10,52,18.20
2021,04,16,10,53,18.20
2021,04,16,10,54,18.30
2021,04,16,10,55,18.30
2021,04,16,10,56,18.40
2021,04,16,10,57,18.40
2021,04,16,10,58,18.40
2021,04,16,10,59,18.40
2021,04,16,11,00,18.40
2021,04,16,11,01,18.40
2021,04,16,11,02,18.40
2021,04,16,11,03,18.50
2021,04,16,11,04,18.50
2021,04,16,11,05,18.50
2021,04,16,11,06,18.60
2021,04,16,11,07,18.70
2021,04,16,11,08,18.70
2021,04,16,11,09,18.80
2021,04,16,11,10,18.90
2021,04,16,11,11,18.90
2021,04,16,11,12,18.90
2021,04,16,11,13,18.90
2021,04,16,11,14,18.90
2021,04,16,11,15,18.90
2021,04,16,11,16,18.90
2021,04,16,11,17,18.90
2021,04,16,11,18,18.90
2021,04,16,11,19,18.90
2021,04,16,11,20,18.90
2021,04,16,11,21,18.90
2021,04,16,11,22,18.90
2021,04,16,11,23,18.90
2021,04,16,11,24,18.90
2021,04,16,11,25,18.90
2021,04,16,11,26,18.90
2021,04,16,11,27,18.90
2021,04,16,11,28,19.10
2021,04,16,11,29,19.10
2021,04,16,11,30,19.10
2021,04,16,11,31,19.10
2021,04,16,11,32,19.10
2021,04,16,11,33,19.10
2021,04,16,11,34,19.10
2021,04,16,11,35,19.10
2021,04,16,11,36,19.10
2021,04,16,11,37,19.10
2021,04,16,11,38,19.10
2021,04,16,11,39,19.10
2021,04,16,11,40,19.10
2021,04,16,11,41,19.10
2021,04,16,11,42,19.10
2021,04,16,11,43,19.10
2021,04,16,11,44,19.10
2021,04,16,11,45,19.10
2021,04,16,11,46,19.10
2021,04,16,11,47,19.10
2021,04,16,11,48,19.20
2021,04,16,11,49,19.30
2021,04,16,11,50,19.30
2021,04,16,11,51,19.30
2021,04,16,11,52,19.20
2021,04,16,11,53,19.20
2021,04,16,11,54,19.20
2021,04,16,11,55,19.20
2021,04,16,11,56,19.20
2021,04,16,11,57,19.20
2021,04,16,11,58,19.10
2021,04,16,11,59,19.10
2021,04,16,12,00,19.10
2021,04,16,12,01,19.10
2021,04,16,12,02,19.10
2021,04,16,12,03,19.10
2021,04,16,12,04,19.10
2021,04,16,12,05,19.20
2021,04,16,12,06,19.30
2021,04,16,12,07,19.30
2021,04,16,12,08,19.40
2021,04,16,12,09,19.40
2021,04,16,12,10,19.40
2021,04,16,12,11,19.40
2021,04,16,12,12,19.50
2021,04,16,12,13,19.50
2021,04,16,12,14,19.50
2021,04,16,12,15,19.50
2021,04,16,12,16,19.50
2021,04,16,12,17,19.60
2021,04,16,12,18,19.60
2021,04,16,12,19,19.70
2021,04,16,12,20,19.70
2021,04,16,12,21,19.70
2021,04,16,12,22,19.60
2021,04,16,12,23,19.60
2021,04,16,12,24,19.60
2021,04,16,12,25,19.60
2021,04,16,12,26,19.60
2021,04,16,12,27,19.60
2021,04,16,12,28,19.60
2021,04,16,12,29,19.50
2021,04,16,12,30,19.50
2021,04,16,12,31,19.40
2021,04,16,12,32,19.50
2021,04,16,12,33,19.50
2021,04,16,12,34,19.50
2021,04,16,12,35,19.50
2021,04,16,12,36,19.50
2021,04,16,12,37,19.60
2021,04,16,12,38,19.60
2021,04,16,12,39,19.60
2021,04,16,12,40,19.70
2021,04,16,12,41,19.70
2021,04,16,12,42,19.70
2021,04,16,12,43,19.70
2021,04,16,12,44,19.70
2021,04,16,12,45,19.70
2021,04,16,12,46,19.70
2021,04,16,12,47,19.60
2021,04,16,12,48,19.60
2021,04,16,12,49,19.70
2021,04,16,12,50,19.70
2021,04,16,12,51,19.80
2021,04,16,12,52,19.80
2021,04,16,12,53,19.90
2021,04,16,12,54,19.90
2021,04,16,12,55,19.90
2021,04,16,12,56,19.90
2021,04,16,12,57,19.90
2021,04,16,12,58,20.00
2021,04,16,12,59,20.10
2021,04,16,13,00,20.20
2021,04,16,13,01,20.20
2021,04,16,13,02,20.20
2021,04,16,13,03,20.30
2021,04,16,13,04,20.40
2021,04,16,13,05,20.50
2021,04,16,13,06,20.50
2021,04,16,13,07,20.60
2021,04,16,13,08,20.70
2021,04,16,13,09,20.70
2021,04,16,13,10,20.80
2021,04,16,13,11,20.80
2021,04,16,13,12,20.80
2021,04,16,13,13,20.80
2021,04,16,13,14,20.70
2021,04,16,13,15,20.70
2021,04,16,13,16,20.70
2021,04,16,13,17,20.60
2021,04,16,13,18,20.70
2021,04,16,13,19,20.70
2021,04,16,13,20,20.60
2021,04,16,13,21,20.50
2021,04,16,13,22,20.50
2021,04,16,13,23,20.40
2021,04,16,13,24,20.40
2021,04,16,13,25,20.50
2021,04,16,13,26,20.50
2021,04,16,13,27,20.70
2021,04,16,13,28,20.70
2021,04,16,13,29,20.90
2021,04,16,13,30,21.00
2021,04,16,13,31,21.10
2021,04,16,13,32,21.10
2021,04,16,13,33,21.20
2021,04,16,13,34,21.20
2021,04,16,13,35,21.30
2021,04,16,13,36,21.30
2021,04,16,13,37,21.20
2021,04,16,13,38,21.00
2021,04,16,13,39,20.90
2021,04,16,13,40,20.80
2021,04,16,13,41,20.70
2021,04,16,13,42,20.70
2021,04,16,13,43,20.70
2021,04,16,13,44,20.70
2021,04,16,13,45,20.70
2021,04,16,13,46,20.70
2021,04,16,13,47,20.80
2021,04,16,13,48,20.80
2021,04,16,13,49,20.90
2021,04,16,13,50,20.90
2021,04,16,13,51,21.00
2021,04,16,13,52,21.00
2021,04,16,13,53,21.00
2021,04,16,13,54,21.00
2021,04,16,13,55,21.00
2021,04,16,13,56,21.00
2021,04,16,13,57,21.00
2021,04,16,13,58,20.90
2021,04,16,13,59,20.90
2021,04,16,14,00,20.80
2021,04,16,14,01,20.80
2021,04,16,14,02,20.70
2021,04,16,14,03,20.70
2021,04,16,14,04,20.80
2021,04,16,14,05,20.80
2021,04,16,14,06,20.90
2021,04,16,14,07,21.00
2021,04,16,14,08,21.00
2021,04,16,14,09,21.00
2021,04,16,14,10,21.00
2021,04,16,14,11,20.90
2021,04,16,14,12,20.80
2021,04,16,14,13,20.80
2021,04,16,14,14,20.80
2021,04,16,14,15,20.80
2021,04,16,14,16,20.80
2021,04,16,14,17,20.80
2021,04,16,14,18,20.90
2021,04,16,14,19,20.90
2021,04,16,14,20,21.00
2021,04,16,14,21,21.00
2021,04,16,14,22,21.00
2021,04,16,14,23,21.00
2021,04,16,14,24,20.80
2021,04,16,14,25,20.80
2021,04,16,14,26,20.80
2021,04,16,14,27,20.90
2021,04,16,14,28,21.00
2021,04,16,14,29,21.00
2021,04,16,14,30,21.10
2021,04,16,14,31,21.10
2021,04,16,14,32,21.10
2021,04,16,14,33,21.10
2021,04,16,14,34,21.10
2021,04,16,14,35,21.10
2021,04,16,14,36,21.10
2021,04,16,14,37,21.00
2021,04,16,14,38,21.00
2021,04,16,14,39,21.00
2021,04,16,14,40,21.00
2021,04,16,14,41,21.00
2021,04,16,14,42,21.10
2021,04,16,14,43,21.10
2021,04,16,14,44,21.10
2021,04,16,14,45,21.10
2021,04,16,14,46,21.20
2021,04,16,14,47,21.20
2021,04,16,14,48,21.30
2021,04,16,14,49,21.30
2021,04,16,14,50,21.40
2021,04,16,14,51,21.40
2021,04,16,14,52,21.40
2021,04,16,14,53,21.30
2021,04,16,14,54,21.30
2021,04,16,14,55,21.30
2021,04,16,14,56,21.30
2021,04,16,14,57,21.30
2021,04,16,14,58,21.40
2021,04,16,14,59,21.40
2021,04,16,15,00,21.60
2021,04,16,15,01,21.60
2021,04,16,15,02,21.60
2021,04,16,15,03,21.60
2021,04,16,15,04,21.70
2021,04,16,15,05,21.70
2021,04,16,15,06,21.70
2021,04,16,15,07,21.80
2021,04,16,15,08,21.80
2021,04,16,15,09,21.90
2021,04,16,15,10,22.00
2021,04,16,15,11,22.10
2021,04,16,15,12,22.20
2021,04,16,15,13,22.20
2021,04,16,15,14,22.20
2021,04,16,15,15,22.20
2021,04,16,15,16,22.20
2021,04,16,15,17,22.20
2021,04,16,15,18,22.20
2021,04,16,15,19,22.20
2021,04,16,15,20,22.20
2021,04,16,15,21,22.20
2021,04,16,15,22,22.20
2021,04,16,15,23,22.20
2021,04,16,15,24,22.10
2021,04,16,15,25,22.10
2021,04,16,15,26,22.10
2021,04,16,15,27,22.10
2021,04,16,15,28,22.10
2021,04,16,15,29,22.10
2021,04,16,15,30,22.20
2021,04,16,15,31,22.20
2021,04,16,15,32,22.30
2021,04,16,15,33,22.30
2021,04,16,15,34,22.30
2021,04,16,15,35,22.30
2021,04,16,15,36,22.30
2021,04,16,15,37,22.30
2021,04,16,15,38,22.30
2021,04,16,15,39,22.30
2021,04,16,15,40,22.30
2021,04,16,15,41,22.40
2021,04,16,15,42,22.40
2021,04,16,15,43,22.40
2021,04,16,15,44,22.50
2021,04,16,15,45,22.60
2021,04,16,15,46,22.60
2021,04,16,15,47,22.70
2021,04,16,15,48,22.70
2021,04,16,15,49,22.80
2021,04,16,15,50,22.70
2021,04,16,15,51,22.70
2021,04,16,15,52,22.60
2021,04,16,15,53,22.50
2021,04,16,15,54,22.40
2021,04,16,15,55,22.30
2021,04,16,15,56,22.30
2021,04,16,15,57,22.30
2021,04,16,15,58,22.30
2021,04,16,15,59,22.30
2021,04,16,16,00,22.30
2021,04,16,16,01,22.40
2021,04,16,16,02,22.40
2021,04,16,16,03,22.40
2021,04,16,16,04,22.50
2021,04,16,16,05,22.50
2021,04,16,16,06,22.50
2021,04,16,16,07,22.50
2021,04,16,16,08,22.50
2021,04,16,16,09,22.40
2021,04,16,16,10,22.40
2021,04,16,16,11,22.40
2021,04,16,16,12,22.40
2021,04,16,16,13,22.40
2021,04,16,16,14,22.50
2021,04,16,16,15,22.50
2021,04,16,16,16,22.50
2021,04,16,16,17,22.50
2021,04,16,16,18,22.50
2021,04,16,16,19,22.50
2021,04,16,16,20,22.40
2021,04,16,16,21,22.40
2021,04,16,16,22,22.30
2021,04,16,16,23,22.30
2021,04,16,16,24,22.30
2021,04,16,16,25,22.30
2021,04,16,16,26,22.30
2021,04,16,16,27,22.30
2021,04,16,16,28,22.30
2021,04,16,16,29,22.30
2021,04,16,16,30,22.30
2021,04,16,16,31,22.20
2021,04,16,16,32,22.20
2021,04,16,16,33,22.20
2021,04,16,16,34,22.20
2021,04,16,16,35,22.10
2021,04,16,16,36,22.10
2021,04,16,16,37,22.10
2021,04,16,16,38,22.10
2021,04,16,16,39,22.00
2021,04,16,16,40,22.00
2021,04,16,16,41,22.00
2021,04,16,16,42,22.00
2021,04,16,16,43,22.10
2021,04,16,16,44,22.20
2021,04,16,16,45,22.30
2021,04,16,16,46,22.30
2021,04,16,16,47,22.50
2021,04,16,16,48,22.60
2021,04,16,16,49,22.60
2021,04,16,16,50,22.70
2021,04,16,16,51,22.70
2021,04,16,16,52,22.80
2021,04,16,16,53,22.80
2021,04,16,16,54,22.70
2021,04,16,16,55,22.70
2021,04,16,16,56,22.70
2021,04,16,16,57,22.80
2021,04,16,16,58,22.80
2021,04,16,16,59,22.80
2021,04,16,17,00,22.90
2021,04,16,17,01,22.90
2021,04,16,17,02,22.90
2021,04,16,17,03,23.00
2021,04,16,17,04,23.10
2021,04,16,17,05,23.10
2021,04,16,17,06,23.20
2021,04,16,17,07,23.20
2021,04,16,17,08,23.20
2021,04,16,17,09,23.20
2021,04,16,17,10,23.20
2021,04,16,17,11,23.10
2021,04,16,17,12,23.10
2021,04,16,17,13,23.00
2021,04,16,17,14,22.90
2021,04,16,17,15,22.90
2021,04,16,17,16,22.90
2021,04,16,17,17,22.90
2021,04,16,17,18,22.90
2021,04,16,17,19,22.90
2021,04,16,17,20,22.90
2021,04,16,17,21,22.90
2021,04,16,17,22,22.90
2021,04,16,17,23,22.90
2021,04,16,17,24,22.80
2021,04,16,17,25,22.80
2021,04,16,17,26,22.70
2021,04,16,17,27,22.60
2021,04,16,17,28,22.50
2021,04,16,17,29,22.50
2021,04,16,17,30,22.40
2021,04,16,17,31,22.30
2021,04,16,17,32,22.30
2021,04,16,17,33,22.30
2021,04,16,17,34,22.20
2021,04,16,17,35,22.20
2021,04,16,17,36,22.20
2021,04,16,17,37,22.20
2021,04,16,17,38,22.20
2021,04,16,17,39,22.20
2021,04,16,17,40,22.20
2021,04,16,17,41,22.20
2021,04,16,17,42,22.20
2021,04,16,17,43,22.20
2021,04,16,17,44,22.20
2021,04,16,17,45,22.20
2021,04,16,17,46,22.10
2021,04,16,17,47,22.10
2021,04,16,17,48,22.10
2021,04,16,17,49,22.10
2021,04,16,17,50,22.00
2021,04,16,17,51,22.00
2021,04,16,17,52,22.00
2021,04,16,17,53,21.90
2021,04,16,17,54,21.90
2021,04,16,17,55,21.90
2021,04,16,17,56,22.00
2021,04,16,17,57,22.00
2021,04,16,17,58,22.00
2021,04,16,17,59,22.10
2021,04,16,18,00,22.20
2021,04,16,18,01,22.20
2021,04,16,18,02,22.20
2021,04,16,18,03,22.10
2021,04,16,18,04,22.00
2021,04,16,18,05,21.80
2021,04,16,18,06,21.70
2021,04,16,18,07,21.50
2021,04,16,18,08,21.30
2021,04,16,18,09,21.00
2021,04,16,18,10,20.90
2021,04,16,18,11,20.90
2021,04,16,18,12,20.80
2021,04,16,18,13,20.90
2021,04,16,18,14,20.90
2021,04,16,18,15,21.00
2021,04,16,18,16,21.10
2021,04,16,18,17,21.20
2021,04,16,18,18,21.30
2021,04,16,18,19,21.30
2021,04,16,18,20,21.40
2021,04,16,18,21,21.40
2021,04,16,18,22,21.40
2021,04,16,18,23,21.40
2021,04,16,18,24,21.40
2021,04,16,18,25,21.30
2021,04,16,18,26,21.30
2021,04,16,18,27,21.30
2021,04,16,18,28,21.30
2021,04,16,18,29,21.30
2021,04,16,18,30,21.30
2021,04,16,18,31,21.30
2021,04,16,18,32,21.30
2021,04,16,18,33,21.30
2021,04,16,18,34,21.30
2021,04,16,18,35,21.30
2021,04,16,18,36,21.30
2021,04,16,18,37,21.30
2021,04,16,18,38,21.30
2021,04,16,18,39,21.30
2021,04,16,18,40,21.30
